Wind_Speed
21 21 21 21 21 21 21 20 17 17 17 17 19 19 19 19 20 18 17 17 17 17 18 16 15 14 13 13 13 14 14 14 15 15 15 17 19 21 22 22 19 18 18
22 21 21 22 21 19 18 17 16 16 15 15 17 18 18 19 20 18 17 16 16 17 19 18 17 16 15 16 15 15 15 15 15 16 15 16 17 18 18 16 14 13 13
22 21 19 19 17 16 16 15 15 16 14 13 14 16 17 18 18 17 17 16 15 17 17 17 18 18 18 18 17 16 16 16 16 16 16 16 17 16 16 16 15 14 13
22 20 18 17 15 14 15 16 15 16 15 13 13 14 14 16 17 16 17 16 17 18 18 18 20 20 21 21 19 18 18 17 15 16 17 17 18 17 17 17 17 17 16
22 19 18 15 14 13 15 15 15 16 15 14 13 13 13 15 16 17 17 18 19 19 20 20 20 21 22 22 22 21 20 18 16 16 18 19 20 19 20 20 20 20 20
22 18 17 14 13 14 14 13 13 15 15 15 14 14 13 14 17 19 20 20 21 21 22 23 22 22 22 22 22 23 22 20 18 18 20 22 24 24 24 24 24 24 25
21 17 16 13 13 14 13 12 12 13 14 14 15 15 15 15 16 19 20 22 22 23 24 23 23 23 22 21 22 22 21 22 22 22 24 26 29 30 30 29 29 29 30
19 16 14 12 13 14 13 12 13 13 13 13 15 16 17 18 19 19 20 21 22 21 21 21 22 22 21 21 23 23 23 24 26 27 28 30 32 35 35 35 34 34 35
18 15 13 13 14 14 12 12 12 12 12 13 14 16 17 19 21 22 23 23 23 22 22 23 23 24 25 26 27 28 29 30 32 34 35 36 37 38 39 41 41 41 42
20 16 14 14 15 14 12 12 11 10 11 12 14 15 17 19 21 22 24 25 25 25 26 26 27 28 29 30 31 32 34 35 37 38 40 41 42 42 43 44 44 45 46
22 19 17 16 16 15 13 12 11 12 12 14 15 16 17 18 20 21 22 24 25 27 28 28 29 30 31 32 33 35 37 38 40 41 43 45 45 44 42 41 41 41 42
22 21 20 19 18 16 15 13 13 15 16 17 18 18 19 19 20 20 21 22 23 25 26 27 28 29 31 34 35 37 40 42 43 44 45 45 42 39 37 36 36 36 37
24 23 22 20 19 17 16 15 16 18 20 22 22 22 21 21 21 21 22 22 24 25 27 28 30 32 34 36 38 40 42 43 42 39 37 36 36 36 35 34 34 35 36
24 23 22 21 21 19 18 17 18 21 23 25 27 27 26 25 24 24 25 25 27 28 30 32 34 36 37 38 39 39 39 37 35 35 34 35 36 37 38 38 39 39 40
24 22 22 22 21 22 22 22 23 26 28 29 30 31 31 30 28 27 28 29 31 32 33 34 36 37 38 38 37 36 35 35 35 35 35 36 37 39 40 41 42 43 43
24 22 22 22 22 22 23 24 26 29 31 31 32 33 33 33 32 31 32 33 34 35 36 36 36 36 36 36 35 35 35 35 36 37 38 39 39 40 40 41 42 44 45
24 23 22 23 24 25 26 28 30 32 33 33 32 33 33 33 33 34 35 36 36 35 34 33 32 32 33 33 34 34 35 36 37 39 40 40 40 40 41 43 45 47 49
25 23 23 24 25 26 27 30 32 33 34 34 32 31 31 32 33 35 36 34 32 32 31 31 30 31 32 33 34 34 34 36 38 39 41 42 42 44 46 48 50 51 53
25 23 23 23 24 26 28 30 33 35 35 33 32 32 32 34 35 36 35 33 32 32 32 32 32 33 34 35 35 36 37 38 40 42 43 45 47 50 52 54 56 58 59
26 23 23 23 25 28 30 33 35 35 33 32 32 33 34 35 36 38 38 37 36 35 34 34 34 35 37 38 39 39 41 42 44 46 48 51 53 56 58 61 63 65 67
28 25 25 26 28 31 33 35 35 33 32 33 34 35 35 36 38 39 39 38 37 37 37 37 37 39 41 42 43 44 46 48 50 53 55 57 60 61 64 66 68 70 72
28 27 27 29 30 32 34 35 33 32 33 35 36 36 37 39 40 40 38 37 38 39 39 40 42 43 45 47 49 51 52 53 56 58 60 61 63 64 66 69 71 74 77
29 28 29 30 32 35 36 34 33 34 36 36 36 38 40 41 40 38 38 39 40 41 42 44 45 47 49 52 55 59 62 63 62 61 62 65 67 70 73 76 78 80 82
29 29 30 31 33 35 33 33 34 35 36 37 39 40 41 41 40 40 40 41 42 43 45 47 49 52 55 58 61 64 67 69 72 71 70 71 74 76 78 81 83 86 88
29 29 30 31 32 32 33 34 36 37 38 39 40 41 40 40 40 40 41 42 44 46 49 51 54 57 60 63 66 68 69 72 74 76 77 78 80 82 84 87 89 91 93
29 30 31 32 32 33 35 37 38 39 39 39 40 41 40 39 39 40 42 44 47 50 52 55 58 61 64 67 69 71 73 75 78 80 82 83 85 87 90 92 95 97 99
Wind_Direction
274 279 285 289 294 297 297 297 297 293 285 277 271 268 269 269 271 269 264 261 261 261 264 266 267 265 266 271 281 292 299 298 295 301 305 313 321 324 318 309 306 308 307
274 278 284 291 298 303 305 304 300 296 290 283 274 269 269 268 269 270 271 268 270 271 271 271 272 271 271 275 277 280 287 292 294 299 306 315 323 331 333 327 323 318 313
271 276 284 294 299 304 308 305 299 296 294 292 282 274 270 266 265 267 271 271 274 276 278 278 279 279 277 275 275 279 285 290 296 299 305 311 317 324 330 333 330 325 318
265 273 283 292 296 301 305 304 301 299 298 297 298 290 274 262 259 262 267 272 275 278 279 280 281 280 278 278 278 282 284 283 288 294 298 301 305 309 311 314 318 319 316
262 268 279 282 286 294 300 302 301 298 298 299 303 307 287 268 260 260 265 270 274 278 279 282 285 283 280 279 280 281 279 276 280 286 288 291 293 293 293 295 297 300 301
260 264 273 274 281 290 296 300 300 301 303 300 296 302 302 285 271 266 268 272 276 278 280 283 287 286 281 278 277 276 275 273 275 280 283 286 287 287 285 286 287 289 291
255 260 265 270 280 287 292 295 300 303 303 301 294 292 294 293 286 278 276 278 280 282 284 286 285 284 281 278 276 275 275 274 274 275 277 281 284 284 284 282 281 284 286
253 255 255 261 270 280 285 291 298 301 301 301 297 291 287 285 283 281 280 281 283 286 286 285 283 281 279 275 273 273 274 275 277 277 277 278 280 282 283 281 280 280 282
252 251 242 250 261 273 278 286 292 302 311 311 303 297 292 287 281 278 278 279 281 281 282 280 278 275 273 272 272 274 277 279 282 284 286 285 284 283 283 282 281 281 282
249 247 233 246 261 269 270 279 286 300 317 322 319 311 304 297 291 285 281 279 279 278 278 278 277 276 277 278 280 281 283 284 286 288 289 290 289 287 285 283 281 281 282
244 242 234 240 254 260 265 273 278 291 306 316 321 320 315 308 300 293 288 283 279 278 278 280 282 283 284 284 284 283 284 284 285 286 286 287 288 287 286 282 279 279 281
241 241 236 241 250 249 252 265 277 286 294 301 310 315 315 310 304 298 294 290 286 284 284 285 285 284 284 283 283 283 284 285 285 285 285 286 287 287 287 285 283 282 283
240 242 238 243 251 251 257 268 279 285 289 293 297 304 308 306 303 301 298 295 292 289 287 286 286 287 286 286 286 285 286 286 287 287 287 288 290 291 291 290 288 287 288
241 241 241 243 250 252 259 272 282 286 286 288 291 296 300 301 298 296 294 293 292 291 292 292 291 290 289 289 288 288 288 288 289 290 292 293 293 293 293 292 291 290 289
247 244 244 245 251 254 261 271 278 283 286 287 288 291 293 294 294 291 290 290 290 290 291 292 291 290 289 289 288 288 288 290 292 294 294 293 293 293 293 293 292 291 290
250 247 249 249 251 256 263 270 277 282 286 287 285 286 287 288 290 292 292 292 291 290 291 291 290 288 288 288 289 290 292 293 295 295 294 292 291 291 291 290 289 289 288
250 249 252 252 254 259 267 274 279 282 286 288 288 287 287 288 290 293 294 294 293 292 292 293 293 293 292 291 291 291 292 294 295 293 292 291 290 289 287 285 285 285 285
247 250 253 255 259 265 273 280 283 286 286 288 292 291 290 291 293 296 296 295 294 294 294 295 296 295 294 293 293 293 294 294 292 291 289 289 289 287 286 286 285 286 286
246 250 254 257 263 271 278 283 287 290 290 290 292 292 292 295 297 298 296 295 295 295 295 295 295 295 294 294 295 295 294 292 291 291 292 291 290 290 289 289 288 288 288
246 251 257 262 269 277 282 287 292 294 292 291 292 293 295 297 300 301 300 298 297 297 296 296 296 297 296 297 297 297 296 295 294 294 293 292 291 291 290 290 290 290 290
247 253 262 268 274 280 285 290 292 290 287 288 292 295 296 299 301 301 300 300 300 300 299 299 299 300 300 300 299 298 298 297 295 294 293 292 292 292 293 293 293 293 292
247 255 263 269 276 282 286 289 287 286 287 290 293 294 296 299 301 301 301 301 301 301 301 302 302 302 302 301 300 298 296 294 293 293 291 291 291 292 292 292 293 293 293
249 256 263 271 279 284 286 284 283 285 288 291 292 294 297 300 300 300 301 302 302 303 303 303 302 301 301 300 300 299 297 296 294 293 292 292 292 293 294 294 294 294 293
251 257 264 273 282 286 284 282 283 286 289 292 294 297 300 301 301 301 302 303 303 302 302 301 301 301 300 300 300 300 299 299 297 296 295 295 295 295 296 296 296 295 294
251 257 266 277 285 285 282 282 284 288 291 294 297 299 300 300 300 302 302 302 302 302 302 302 301 300 300 300 300 300 299 298 297 296 296 296 297 297 298 298 298 297 296
252 259 269 278 283 284 284 285 288 291 294 296 299 300 299 299 300 301 301 301 301 301 301 300 300 300 301 301 300 300 299 299 299 299 298 298 298 299 300 300 299 299 298
Height
5854 5854 5853 5853 5852 5851 5850 5850 5849 5849 5849 5849 5849 5849 5850 5851 5853 5853 5853 5853 5853 5854 5855 5854 5854 5854 5854 5855 5855 5855 5854 5853 5853 5852 5851 5850 5849 5847 5845 5843 5841 5840 5840
5852 5852 5852 5851 5850 5849 5848 5847 5847 5847 5846 5846 5846 5847 5847 5848 5850 5851 5851 5851 5851 5851 5852 5852 5851 5851 5851 5851 5851 5851 5851 5851 5850 5849 5848 5847 5846 5844 5842 5840 5839 5838 5838
5849 5850 5850 5849 5849 5848 5847 5846 5846 5845 5845 5844 5844 5844 5844 5846 5847 5848 5849 5849 5849 5849 5849 5849 5849 5848 5848 5848 5848 5847 5848 5847 5846 5846 5845 5844 5843 5842 5841 5839 5838 5837 5836
5847 5847 5848 5848 5847 5846 5845 5845 5844 5844 5844 5843 5842 5842 5842 5843 5844 5845 5846 5846 5846 5846 5846 5846 5845 5845 5845 5844 5844 5844 5844 5844 5843 5842 5842 5841 5840 5839 5838 5837 5836 5835 5834
5844 5846 5846 5846 5845 5844 5844 5843 5843 5843 5842 5841 5840 5840 5839 5840 5841 5842 5843 5843 5843 5843 5843 5842 5842 5841 5841 5841 5840 5840 5840 5839 5838 5838 5837 5837 5836 5835 5834 5833 5833 5832 5831
5842 5844 5844 5844 5843 5843 5842 5841 5841 5841 5840 5839 5839 5838 5837 5837 5838 5839 5839 5840 5840 5840 5839 5839 5838 5837 5837 5836 5836 5836 5835 5834 5833 5833 5832 5832 5831 5830 5829 5828 5828 5827 5826
5839 5841 5841 5842 5842 5841 5840 5839 5838 5838 5837 5836 5836 5835 5835 5835 5835 5835 5836 5836 5836 5836 5835 5835 5834 5833 5832 5831 5831 5830 5829 5828 5828 5827 5828 5827 5825 5824 5824 5823 5822 5821 5820
5836 5838 5838 5839 5839 5838 5838 5837 5835 5835 5834 5833 5833 5833 5832 5832 5832 5832 5831 5831 5831 5831 5830 5830 5829 5828 5826 5825 5825 5824 5823 5822 5822 5821 5821 5821 5819 5818 5817 5816 5815 5814 5813
5832 5834 5835 5835 5835 5835 5835 5834 5833 5833 5831 5830 5830 5829 5828 5828 5827 5827 5826 5826 5825 5825 5824 5823 5823 5821 5820 5819 5819 5819 5818 5818 5817 5816 5815 5814 5812 5811 5810 5809 5807 5806 5805
5828 5830 5831 5832 5832 5832 5832 5832 5831 5830 5829 5828 5826 5825 5824 5823 5822 5821 5820 5820 5819 5818 5818 5817 5816 5816 5815 5815 5814 5814 5813 5812 5811 5809 5807 5805 5804 5802 5801 5800 5799 5798 5796
5824 5826 5827 5828 5829 5829 5829 5829 5828 5827 5826 5825 5824 5822 5820 5818 5817 5816 5815 5814 5813 5813 5812 5812 5811 5811 5810 5809 5808 5807 5806 5804 5803 5801 5799 5797 5794 5792 5790 5788 5787 5787 5786
5820 5822 5823 5824 5825 5825 5826 5826 5825 5824 5823 5822 5821 5819 5817 5815 5814 5812 5811 5810 5809 5808 5807 5806 5805 5804 5803 5802 5800 5799 5797 5795 5794 5792 5790 5787 5784 5782 5780 5779 5778 5777 5776
5816 5818 5819 5820 5820 5821 5822 5822 5822 5821 5820 5819 5817 5815 5814 5812 5810 5809 5807 5806 5805 5804 5802 5800 5799 5798 5796 5795 5793 5791 5789 5788 5786 5784 5781 5778 5776 5773 5772 5770 5769 5768 5766
5811 5814 5815 5816 5816 5817 5818 5818 5818 5817 5816 5815 5813 5811 5809 5808 5806 5804 5803 5801 5800 5798 5796 5794 5792 5791 5789 5787 5785 5783 5781 5779 5778 5776 5774 5771 5769 5766 5764 5762 5760 5759 5757
5808 5809 5811 5812 5812 5813 5814 5814 5813 5812 5811 5810 5808 5806 5804 5802 5801 5799 5797 5795 5794 5792 5790 5788 5785 5783 5781 5779 5777 5776 5774 5772 5770 5768 5766 5764 5762 5760 5757 5755 5752 5749 5747
5804 5806 5806 5807 5808 5809 5809 5809 5808 5807 5806 5804 5803 5801 5799 5797 5795 5794 5792 5789 5787 5784 5782 5780 5778 5776 5774 5772 5770 5769 5767 5764 5762 5759 5757 5755 5753 5751 5748 5745 5742 5739 5736
5800 5801 5802 5802 5803 5804 5805 5804 5803 5802 5801 5799 5797 5795 5793 5791 5789 5787 5785 5783 5780 5777 5774 5772 5770 5768 5766 5765 5763 5761 5758 5755 5752 5750 5747 5745 5743 5741 5738 5734 5731 5728 5725
5795 5796 5797 5798 5799 5800 5800 5799 5798 5797 5795 5793 5791 5789 5787 5785 5783 5781 5778 5775 5772 5769 5767 5765 5763 5761 5758 5757 5755 5752 5749 5746 5743 5740 5737 5735 5732 5729 5725 5722 5718 5715 5712
5790 5792 5793 5794 5794 5795 5794 5794 5793 5791 5789 5787 5785 5784 5782 5780 5777 5774 5771 5768 5765 5762 5760 5757 5755 5753 5751 5748 5746 5743 5740 5737 5733 5730 5727 5723 5719 5716 5712 5708 5704 5701 5698
5786 5788 5789 5789 5790 5790 5789 5788 5787 5785 5783 5781 5780 5778 5776 5773 5771 5768 5765 5761 5758 5755 5752 5749 5747 5744 5740 5738 5735 5732 5729 5726 5722 5719 5715 5711 5707 5702 5698 5693 5689 5684 5680
5782 5783 5784 5785 5785 5784 5784 5782 5781 5779 5777 5776 5773 5771 5769 5766 5763 5760 5757 5754 5751 5747 5744 5741 5738 5734 5730 5726 5724 5721 5718 5714 5710 5706 5701 5696 5691 5686 5681 5676 5670 5665 5659
5777 5778 5779 5780 5779 5779 5778 5777 5775 5773 5771 5770 5767 5764 5762 5759 5756 5752 5749 5745 5742 5739 5735 5732 5728 5724 5720 5715 5711 5708 5706 5704 5699 5693 5686 5681 5676 5671 5665 5658 5652 5645 5638
5772 5773 5774 5774 5774 5773 5772 5771 5769 5767 5765 5763 5760 5757 5754 5751 5748 5744 5741 5737 5733 5730 5726 5722 5718 5714 5709 5704 5698 5692 5687 5683 5680 5678 5671 5665 5659 5652 5645 5638 5631 5623 5615
5766 5768 5768 5768 5768 5767 5765 5764 5763 5761 5759 5756 5753 5750 5747 5743 5739 5735 5732 5728 5724 5721 5716 5712 5707 5701 5696 5691 5685 5678 5670 5661 5655 5652 5650 5644 5637 5630 5623 5615 5607 5598 5589
5761 5762 5763 5762 5761 5760 5759 5758 5756 5754 5751 5749 5745 5742 5739 5735 5731 5727 5723 5720 5715 5711 5706 5701 5695 5689 5683 5676 5670 5663 5656 5647 5638 5631 5627 5622 5616 5608 5599 5590 5580 5570 5559
5755 5756 5756 5756 5755 5754 5753 5751 5749 5747 5744 5741 5738 5734 5731 5727 5723 5719 5715 5711 5706 5701 5695 5689 5683 5676 5669 5661 5653 5645 5637 5628 5619 5610 5603 5599 5593 5586 5575 5564 5552 5540 5527